[[{"header":{"parameterUnit":"m.s-1","parameterCategory":1,"la1":30.2991,"la2":30.254,"lo1":-89.0895,"lo2":-89.0444,"dy":0.0017,"dx":0.0017,"nx":28,"ny":28,"refTime":"2024-04-05T03:00:00:Z","depth":0,"parameterNumber":2,"parameterNumberName":"U-component_of_WINDS"},"data":[0,0,0,0,0,0,0,0,0,0,0,0,0,0,0,0,0,0,0,0,0,0,0,0,0,0,0,0,0,0,0,0,0,0,0,0,0,0,0,0,0,0,0,0,0,0,0,0,0,0,0,0,0,0,0,0,0,0,-5.1892,-5.1891,0,-5.1854,-5.1854,-5.1853,-5.165,-5.1646,-5.1641,-5.1636,-5.1602,-5.1606,-5.1609,0,0,0,0,0,0,0,0,0,0,0,0,0,-5.1791,-5.1794,-5.1892,-5.1891,-5.1891,-5.1854,-5.1854,-5.1853,-5.1651,-5.1645,-5.1639,-5.1634,-5.1601,-5.1605,-5.1609,0,0,0,0,0,0,0,0,0,0,0,0,0,-5.1803,-5.1795,-5.1892,-5.1786,-5.1776,-5.1855,-5.1854,-5.1853,-5.1653,-5.1645,-5.1638,-5.1631,-5.1599,-5.1605,-5.161,-5.179,0,0,-5.1627,-5.1629,0,0,0,0,0,0,0,0,-5.1802,-5.1807,-5.1802,-5.1793,-5.1782,-5.1749,-5.1806,-5.1832,-5.1654,-5.17,-5.1636,-5.1628,-5.1657,-5.1657,-5.1667,-5.1788,-5.1787,-5.1627,-5.163,-5.1633,-5.1634,0,0,0,0,0,0,0,-5.1802,-5.1807,-5.1877,-5.1802,-5.179,-5.1741,-5.1734,-5.181,-5.172,-5.1695,-5.168,-5.1678,-5.1651,-5.1662,-5.1664,-5.1786,-5.1627,-5.1632,-5.1635,-5.1637,-5.2051,-5.2058,0,0,0,0,0,0,-5.1815,-5.1808,-5.1878,-5.1876,-5.1774,-5.1748,-5.1741,-5.1767,-5.1718,-5.1704,-5.1684,-5.1669,-5.1656,-5.1658,-5.1662,-5.1867,-5.1633,-5.1638,-5.1641,-5.2043,-5.2053,-5.2061,0,0,0,0,0,0,-5.1814,-5.1824,-5.188,-5.1838,-5.1841,-5.1758,-5.1789,-5.1771,-5.1781,-5.171,-5.1694,-5.1712,-5.165,-5.1655,-5.1759,-5.1863,-5.164,-5.1645,-5.2034,-5.2046,-5.2057,-5.228,0,0,0,0,0,0,-5.1812,-5.1824,-5.1891,-5.1841,-5.1844,-5.1977,-5.1795,-5.1775,-5.1791,-5.177,-5.1732,-5.1719,-5.1645,-5.1752,-5.1764,-5.1867,-5.1649,-5.2024,-5.2039,-5.2053,-5.2263,-5.2298,-5.2328,0,0,0,0,0,-5.1809,-5.1957,-5.1896,-5.1905,-5.1926,-5.1983,-5.1985,-5.1896,-5.18,-5.1867,-5.1821,-5.172,-5.1851,-5.1764,-5.1776,-5.1882,-5.2017,-5.2035,-5.2052,-5.2248,-5.2291,-5.2327,0,0,0,0,0,0,-5.2024,-5.1948,-5.1879,-5.2015,-5.2007,-5.1948,-5.2029,-5.1944,-5.1963,-5.1943,-5.1833,-5.1827,-5.1947,-5.1925,-5.183,-5.2052,-5.1916,-5.1937,-5.2062,-5.2102,-5.2133,-5.2135,-5.1654,0,0,0,0,0,-5.2087,-5.2138,-5.207,-5.2197,-5.2196,-5.2114,-5.2136,-5.2068,-5.2055,-5.2051,-5.2012,-5.2005,-5.2044,-5.2072,-5.2104,-5.226,-5.2248,-5.2338,-5.2371,-5.2398,-5.2416,-5.2495,-5.2534,-5.2118,-5.2118,-5.2117,0,0,-5.2217,-5.2183,-5.2222,-5.2239,-5.2224,-5.228,-5.2112,-5.218,-5.222,-5.2061,-5.2155,-5.2128,-5.2113,-5.2243,-5.2298,-5.2228,-5.2529,-5.242,-5.2442,-5.2446,-5.2517,-5.2557,-5.2592,-5.213,-5.2128,-5.2126,0,0,-5.2483,-5.2464,-5.2565,-5.2553,-5.2532,-5.2477,-5.2502,-5.2457,-5.2431,-5.2524,-5.2406,-5.2454,-5.2523,-5.2516,-5.2522,-5.2786,-5.2693,-5.28,-5.2968,-5.3046,-5.3079,-5.3107,-5.3199,-5.3234,-5.2819,-5.2819,-5.282,0,-5.2649,-5.2727,-5.2629,-5.2702,-5.2713,-5.257,-5.2672,-5.2666,-5.2659,-5.2669,-5.2591,-5.2674,-5.2654,-5.2779,-5.2844,-5.2854,-5.2878,-5.2802,-5.3082,-5.311,-5.3135,-5.3221,-5.3256,-5.2832,-5.2831,-5.2829,-5.2828,0,-5.2931,-5.2987,-5.3072,-5.3065,-5.3085,-5.3174,-5.3089,-5.3121,-5.3052,-5.3005,-5.3102,-5.3073,-5.3095,-5.312,-5.3055,-5.3237,-5.3194,-5.3101,-5.2962,-5.3189,-5.3268,-5.3301,-5.2851,-5.2846,-5.2842,-5.2839,0,0,-5.333,-5.3266,-5.3299,-5.3293,-5.326,-5.3302,-5.3384,-5.3404,-5.3434,-5.3434,-5.3499,-5.3561,-5.3474,-5.3481,-5.3413,-5.3482,-5.369,-5.338,-5.3378,-5.3437,-5.3888,-5.3956,-5.3996,-5.363,-5.3636,-5.3641,-5.3888,0,-5.3582,-5.3716,-5.3629,-5.3777,-5.3827,-5.3693,-5.3764,-5.3752,-5.3711,-5.3748,-5.3703,-5.3748,-5.3631,-5.3634,-5.3697,-5.3652,-5.3779,-5.3633,-5.3689,-5.3692,-5.3694,-5.4037,-5.411,-5.4345,-5.3919,-5.3924,-5.3928,0,-5.3894,-5.3905,-5.4058,-5.4012,-5.403,-5.4095,-5.4106,-5.4144,-5.4128,-5.4093,-5.4101,-5.4015,-5.4093,-5.3958,-5.4063,-5.3965,-5.3984,-5.3965,-5.3972,-5.3972,-5.3822,-5.4044,-5.4418,-5.4452,-5.3976,-5.3972,-5.3969,0,-5.4167,-5.422,-5.4317,-5.4317,-5.4268,-5.4316,-5.4298,-5.4274,-5.4292,-5.4302,-5.4312,-5.4334,-5.4345,-5.4363,-5.4285,-5.4195,-5.4401,-5.4259,-5.4373,-5.4376,-5.4421,-5.4418,-5.48,-5.4438,-5.4437,-5.4437,-5.4436,0,-5.4456,-5.4555,-5.4438,-5.4498,-5.4604,-5.4504,-5.4612,-5.458,-5.456,-5.4612,-5.4499,-5.455,-5.4445,-5.4486,-5.4427,-5.4522,-5.4529,-5.4503,-5.4485,-5.4511,-5.4514,-5.452,-5.45,-5.4446,-5.4444,-5.4442,-5.444,0,-5.4778,-5.4704,-5.4801,-5.4745,-5.4734,-5.4814,-5.4767,-5.482,-5.4772,-5.4839,-5.4849,-5.4773,-5.4815,-5.474,-5.4774,-5.4734,-5.4866,-5.4825,-5.4871,-5.4858,-5.4975,-5.4964,-5.5371,-5.5419,-5.5029,-5.5033,-5.5036,0,-5.4966,-5.5037,-5.4989,-5.5014,-5.5002,-5.5045,-5.5061,-5.4967,-5.4989,-5.4975,-5.5031,-5.5063,-5.5083,-5.5158,-5.5106,-5.5131,-5.5088,-5.5229,-5.5091,-5.5115,-5.5087,-5.5083,-5.5089,-5.5257,-5.5262,-5.5266,-5.5269,0,-5.5307,-5.5266,-5.5293,-5.5308,-5.533,-5.5338,-5.5337,-5.5365,-5.5265,-5.5296,-5.5336,-5.5352,-5.5385,-5.5419,-5.5431,-5.5414,-5.5325,-5.5313,-5.534,-5.5366,-5.5388,-5.5375,-5.4945,-5.5303,-5.53,-5.5297,-5.5295,-5.5294,-5.5565,-5.5621,-5.5595,-5.5629,-5.5618,-5.562,-5.5667,-5.5623,-5.5655,-5.5672,-5.5616,-5.567,-5.5651,-5.5658,-5.5651,-5.5692,-5.5629,-5.567,-5.5679,-5.569,-5.5707,-5.5385,-5.5695,-5.5693,-5.5692,-5.5692,-5.5691,0,-5.5897,-5.5873,-5.5905,-5.5907,-5.5934,-5.5847,-5.5842,-5.587,-5.5918,-5.5908,-5.5929,-5.5976,-5.6008,-5.596,-5.5983,-5.6026,-5.5986,-5.6035,-5.6029,-5.6027,-5.5763,-5.5736,-5.6067,-5.6067,-5.6067,-5.6067,-5.6067,-5.6067,-5.6073,-5.6163,-5.612,-5.6204,-5.618,-5.6229,-5.6234,-5.6235,-5.6226,-5.6282,-5.6307,-5.6275,-5.6249,-5.627,-5.6296,-5.628,-5.6294,-5.6357,-5.6328,-5.6082,-5.6045,-5.601,-5.5984,-5.6361,-5.6362,-5.6587,-5.6589,-5.6591]},{"header":{"parameterUnit":"m.s-1","parameterCategory":1,"la1":30.2991,"la2":30.254,"lo1":-89.0895,"lo2":-89.0444,"dy":0.0017,"dx":0.0017,"nx":28,"ny":28,"refTime":"2024-04-05T03:00:00:Z","depth":0,"parameterNumber":3,"parameterNumberName":"V-component_of_WINDS"},"data":[0,0,0,0,0,0,0,0,0,0,0,0,0,0,0,0,0,0,0,0,0,0,0,0,0,0,0,0,0,0,0,0,0,0,0,0,0,0,0,0,0,0,0,0,0,0,0,0,0,0,0,0,0,0,0,0,0,0,-2.4284,-2.4285,0,-2.4333,-2.4333,-2.4334,-2.4325,-2.4324,-2.4323,-2.4322,-2.437,-2.4372,-2.4374,0,0,0,0,0,0,0,0,0,0,0,0,0,-2.418,-2.4182,-2.4284,-2.4285,-2.4286,-2.4333,-2.4333,-2.4334,-2.4325,-2.4324,-2.4323,-2.4322,-2.4369,-2.4372,-2.4374,0,0,0,0,0,0,0,0,0,0,0,0,0,-2.4227,-2.4183,-2.4284,-2.4287,-2.4288,-2.4333,-2.4333,-2.4334,-2.4325,-2.4324,-2.4323,-2.4322,-2.4369,-2.4372,-2.4375,-2.442,0,0,-2.4384,-2.4386,0,0,0,0,0,0,0,0,-2.4224,-2.4231,-2.4286,-2.4287,-2.4288,-2.4322,-2.4314,-2.4363,-2.4326,-2.4311,-2.4322,-2.4321,-2.4355,-2.4359,-2.4371,-2.4422,-2.4424,-2.4384,-2.4386,-2.4388,-2.4389,0,0,0,0,0,0,0,-2.4221,-2.4228,-2.4303,-2.4287,-2.4288,-2.4284,-2.4289,-2.4323,-2.4339,-2.4312,-2.4312,-2.4318,-2.4355,-2.4368,-2.4372,-2.4425,-2.4384,-2.4387,-2.4389,-2.439,-2.4512,-2.4513,0,0,0,0,0,0,-2.4217,-2.4226,-2.4302,-2.4305,-2.4252,-2.4287,-2.4293,-2.4312,-2.4339,-2.4342,-2.4319,-2.4317,-2.4363,-2.4368,-2.4374,-2.4426,-2.4388,-2.4391,-2.4392,-2.451,-2.4512,-2.4513,0,0,0,0,0,0,-2.4215,-2.4224,-2.43,-2.4265,-2.4275,-2.429,-2.4312,-2.4314,-2.4326,-2.4344,-2.4347,-2.4329,-2.4362,-2.4369,-2.4408,-2.4427,-2.4392,-2.4395,-2.4509,-2.4511,-2.4513,-2.4532,0,0,0,0,0,0,-2.4212,-2.4223,-2.4242,-2.4266,-2.4277,-2.4334,-2.4313,-2.4315,-2.4332,-2.433,-2.4354,-2.4357,-2.4362,-2.4403,-2.4411,-2.4431,-2.4397,-2.4507,-2.451,-2.4512,-2.453,-2.4535,-2.4539,0,0,0,0,0,-2.4209,-2.4246,-2.4243,-2.4252,-2.43,-2.4336,-2.4342,-2.4347,-2.4334,-2.4351,-2.4362,-2.4356,-2.4424,-2.4407,-2.4416,-2.4437,-2.4506,-2.4509,-2.4512,-2.4528,-2.4534,-2.4539,0,0,0,0,0,0,-2.4224,-2.4249,-2.4246,-2.4292,-2.4312,-2.4334,-2.4357,-2.4354,-2.4377,-2.4374,-2.4379,-2.4385,-2.4423,-2.4434,-2.4415,-2.4481,-2.4463,-2.4468,-2.4472,-2.4478,-2.4482,-2.4478,-2.44,0,0,0,0,0,-2.4232,-2.426,-2.428,-2.4319,-2.4329,-2.4341,-2.4357,-2.4359,-2.4379,-2.4388,-2.4401,-2.4421,-2.4446,-2.4463,-2.4487,-2.4531,-2.4535,-2.455,-2.4555,-2.4558,-2.4562,-2.4584,-2.459,-2.4523,-2.4523,-2.4523,0,0,-2.4251,-2.4268,-2.4285,-2.4322,-2.4338,-2.4365,-2.4348,-2.4379,-2.4398,-2.4392,-2.4429,-2.4439,-2.4461,-2.4502,-2.4521,-2.4512,-2.4581,-2.4562,-2.4565,-2.4567,-2.4587,-2.4594,-2.4599,-2.4525,-2.4525,-2.4525,0,0,-2.4298,-2.4314,-2.4347,-2.4363,-2.4386,-2.4393,-2.4401,-2.4424,-2.443,-2.4467,-2.4462,-2.4485,-2.453,-2.4545,-2.4558,-2.4608,-2.4602,-2.4615,-2.4638,-2.4659,-2.4665,-2.4669,-2.4685,-2.4691,-2.4619,-2.4619,-2.4619,0,-2.4317,-2.4359,-2.4364,-2.4394,-2.441,-2.4405,-2.4437,-2.4452,-2.4482,-2.4492,-2.4482,-2.4536,-2.4551,-2.4593,-2.4605,-2.4617,-2.4624,-2.4613,-2.4664,-2.4668,-2.4673,-2.4688,-2.4694,-2.4621,-2.4621,-2.462,-2.462,0,-2.4381,-2.441,-2.4433,-2.4462,-2.448,-2.4511,-2.4519,-2.4537,-2.4537,-2.4545,-2.4581,-2.4598,-2.4624,-2.4635,-2.4636,-2.4677,-2.4671,-2.4663,-2.4645,-2.468,-2.4694,-2.47,-2.4623,-2.4622,-2.4622,-2.4621,0,0,-2.444,-2.4469,-2.4478,-2.4489,-2.4514,-2.4536,-2.4565,-2.4592,-2.4605,-2.4626,-2.4649,-2.4686,-2.4677,-2.4692,-2.4694,-2.4713,-2.4748,-2.4702,-2.4702,-2.4708,-2.4793,-2.4798,-2.4805,-2.4745,-2.4746,-2.4747,-2.479,0,-2.4487,-2.454,-2.4545,-2.4592,-2.4617,-2.4612,-2.4637,-2.4654,-2.4662,-2.4683,-2.4691,-2.4716,-2.4704,-2.4713,-2.4731,-2.474,-2.4765,-2.4737,-2.4766,-2.4767,-2.4759,-2.4813,-2.4819,-2.4859,-2.4796,-2.4797,-2.4798,0,-2.4551,-2.4572,-2.4622,-2.464,-2.4651,-2.4674,-2.4697,-2.4718,-2.4736,-2.474,-2.4756,-2.4755,-2.4783,-2.4764,-2.4803,-2.4784,-2.4795,-2.4801,-2.4803,-2.4805,-2.4784,-2.4815,-2.4872,-2.4877,-2.4807,-2.4806,-2.4806,0,-2.4586,-2.4627,-2.4662,-2.4672,-2.4695,-2.4711,-2.4721,-2.4738,-2.4753,-2.4772,-2.4781,-2.4804,-2.4817,-2.4833,-2.4838,-2.4824,-2.4875,-2.4857,-2.4878,-2.4877,-2.4888,-2.4887,-2.4947,-2.4898,-2.4898,-2.4898,-2.4898,0,-2.4638,-2.4668,-2.4678,-2.4699,-2.4731,-2.4735,-2.4767,-2.4776,-2.4791,-2.4812,-2.4809,-2.4829,-2.4834,-2.4855,-2.4858,-2.4888,-2.4894,-2.4896,-2.4897,-2.4896,-2.4896,-2.4903,-2.49,-2.4899,-2.4899,-2.4899,-2.4898,0,-2.4683,-2.4691,-2.4728,-2.4746,-2.4751,-2.4774,-2.4789,-2.4808,-2.4815,-2.4842,-2.4848,-2.4858,-2.4882,-2.4888,-2.4916,-2.4919,-2.4953,-2.4952,-2.4947,-2.4947,-2.4966,-2.4963,-2.5031,-2.504,-2.4987,-2.4987,-2.4988,0,-2.4716,-2.4738,-2.4758,-2.4773,-2.4783,-2.4807,-2.4821,-2.4825,-2.484,-2.4861,-2.4877,-2.49,-2.4919,-2.4957,-2.4966,-2.4987,-2.4985,-2.5007,-2.4988,-2.4986,-2.4983,-2.4981,-2.4982,-2.501,-2.5011,-2.5012,-2.5012,0,-2.4771,-2.4773,-2.4795,-2.4817,-2.4834,-2.4852,-2.4868,-2.488,-2.4886,-2.4902,-2.4927,-2.4941,-2.4969,-2.4992,-2.5012,-2.5021,-2.5017,-2.5018,-2.5023,-2.5022,-2.5018,-2.5019,-2.4955,-2.5016,-2.5016,-2.5015,-2.5015,-2.5015,-2.481,-2.4829,-2.4845,-2.4868,-2.4881,-2.4896,-2.4914,-2.4923,-2.4943,-2.4966,-2.4967,-2.4993,-2.5008,-2.5035,-2.5045,-2.5064,-2.5058,-2.5066,-2.5068,-2.507,-2.507,-2.5016,-2.5068,-2.5068,-2.5068,-2.5068,-2.5068,0,-2.4864,-2.4873,-2.4895,-2.4918,-2.4935,-2.493,-2.4947,-2.4962,-2.4985,-2.4999,-2.5017,-2.5044,-2.5065,-2.5075,-2.5096,-2.5109,-2.5107,-2.5114,-2.5112,-2.5114,-2.5076,-2.5069,-2.5115,-2.5115,-2.5115,-2.5115,-2.5115,-2.5115,-2.4894,-2.4925,-2.4928,-2.4965,-2.4974,-2.4999,-2.501,-2.5023,-2.5034,-2.5064,-2.5081,-2.5088,-2.51,-2.5121,-2.5139,-2.5142,-2.5149,-2.5156,-2.5157,-2.5122,-2.5117,-2.5112,-2.5105,-2.5158,-2.5158,-2.5193,-2.5193,-2.5194]}]]